Time,TemperatureF,DewpointF,PressureIn,WindDirection,WindDirectionDegrees,WindSpeedMPH,WindSpeedGustMPH,Humidity,HourlyPrecipIn,Conditions,Clouds,dailyrainin,SoftwareType,DateUTC
2013-01-19 00:02:00,34.0,33.0,28.66,South,173,0.0,-999.0,96,18.62,,,-99.99,,2013-01-19 06:02:00,
2013-01-19 00:12:00,34.0,33.0,28.66,South,173,0.0,-999.0,96,18.62,,,-99.99,,2013-01-19 06:12:00,
2013-01-19 00:22:00,33.0,32.0,28.65,South,173,0.0,-999.0,96,18.62,,,-99.99,,2013-01-19 06:22:00,
2013-01-19 00:33:00,33.0,32.0,28.65,South,173,0.0,-999.0,96,18.62,,,-99.99,,2013-01-19 06:33:00,
2013-01-19 00:43:00,33.0,32.0,28.65,South,173,0.0,-999.0,96,18.62,,,-99.99,,2013-01-19 06:43:00,
2013-01-19 00:53:00,33.0,32.0,28.66,South,173,0.0,-999.0,97,18.62,,,-99.99,,2013-01-19 06:53:00,
2013-01-19 01:02:00,33.0,32.0,28.66,South,173,0.0,-999.0,97,18.62,,,-99.99,,2013-01-19 07:02:00,
2013-01-19 01:12:00,33.0,32.0,28.66,South,173,0.0,-999.0,97,18.62,,,-99.99,,2013-01-19 07:12:00,
2013-01-19 01:22:00,31.0,31.0,28.65,South,173,0.0,-999.0,98,18.62,,,-99.99,,2013-01-19 07:22:00,
2013-01-19 01:33:00,31.0,31.0,28.65,South,173,0.0,-999.0,98,18.62,,,-99.99,,2013-01-19 07:33:00,
2013-01-19 01:43:00,31.0,31.0,28.65,South,173,0.0,-999.0,98,18.62,,,-99.99,,2013-01-19 07:43:00,
2013-01-19 01:52:00,31.0,31.0,28.65,South,173,0.0,-999.0,98,18.62,,,-99.99,,2013-01-19 07:52:00,
2013-01-19 02:02:00,31.0,31.0,28.65,South,173,0.0,-999.0,98,18.62,,,-99.99,,2013-01-19 08:02:00,
2013-01-19 02:12:00,31.0,31.0,28.65,South,173,0.0,-999.0,98,18.62,,,-99.99,,2013-01-19 08:12:00,
2013-01-19 02:22:00,32.0,31.0,28.65,South,173,0.0,-999.0,97,18.62,,,-99.99,,2013-01-19 08:22:00,
2013-01-19 02:33:00,32.0,31.0,28.65,South,173,0.0,-999.0,97,18.62,,,-99.99,,2013-01-19 08:33:00,
2013-01-19 02:43:00,32.0,31.0,28.65,South,173,0.0,-999.0,97,18.62,,,-99.99,,2013-01-19 08:43:00,
2013-01-19 02:53:00,32.0,31.0,28.65,South,173,0.0,-999.0,97,18.62,,,-99.99,,2013-01-19 08:53:00,
2013-01-19 03:02:00,32.0,31.0,28.65,South,173,0.0,-999.0,97,18.62,,,-99.99,,2013-01-19 09:02:00,
2013-01-19 03:12:00,32.0,31.0,28.65,South,173,0.0,-999.0,97,18.62,,,-99.99,,2013-01-19 09:12:00,
2013-01-19 03:22:00,32.0,32.0,28.64,South,173,0.0,-999.0,98,18.62,,,-99.99,,2013-01-19 09:22:00,
2013-01-19 03:33:00,32.0,32.0,28.64,South,173,0.0,-999.0,98,18.62,,,-99.99,,2013-01-19 09:33:00,
2013-01-19 03:43:00,32.0,32.0,28.64,South,173,0.0,-999.0,98,18.62,,,-99.99,,2013-01-19 09:43:00,
2013-01-19 03:53:00,32.0,31.0,28.64,South,173,0.0,-999.0,97,18.62,,,-99.99,,2013-01-19 09:53:00,
2013-01-19 04:02:00,32.0,31.0,28.64,South,173,0.0,-999.0,97,18.62,,,-99.99,,2013-01-19 10:02:00,
2013-01-19 04:12:00,32.0,31.0,28.64,South,173,0.0,-999.0,97,18.62,,,-99.99,,2013-01-19 10:12:00,
2013-01-19 04:22:00,32.0,31.0,28.64,South,173,0.0,-999.0,97,18.62,,,-99.99,,2013-01-19 10:22:00,
2013-01-19 04:33:00,32.0,31.0,28.64,South,173,0.0,-999.0,97,18.62,,,-99.99,,2013-01-19 10:33:00,
2013-01-19 04:43:00,32.0,31.0,28.64,SSE,159,0.0,-999.0,97,18.62,,,-99.99,,2013-01-19 10:43:00,
2013-01-19 04:53:00,32.0,31.0,28.64,SSE,159,0.0,-999.0,97,18.62,,,-99.99,,2013-01-19 10:53:00,
2013-01-19 05:02:00,32.0,31.0,28.64,SSE,159,0.0,-999.0,97,18.62,,,-99.99,,2013-01-19 11:02:00,
2013-01-19 05:12:00,32.0,31.0,28.64,SSE,159,0.0,-999.0,97,18.62,,,-99.99,,2013-01-19 11:12:00,
2013-01-19 06:48:00,31.0,31.0,28.65,South,186,0.0,-999.0,98,18.62,,,-99.99,,2013-01-19 12:48:00,
2013-01-19 07:02:00,30.0,29.0,28.65,South,186,0.0,-999.0,98,18.62,,,-99.99,,2013-01-19 13:02:00,
2013-01-19 07:12:00,30.0,29.0,28.65,South,186,0.0,-999.0,98,18.62,,,-99.99,,2013-01-19 13:12:00,
2013-01-19 07:22:00,30.0,29.0,28.65,South,191,0.0,-999.0,98,18.62,,,-99.99,,2013-01-19 13:22:00,
2013-01-19 07:34:00,30.0,29.0,28.65,South,191,0.0,-999.0,98,18.62,,,-99.99,,2013-01-19 13:34:00,
2013-01-19 07:43:00,30.0,29.0,28.65,South,191,0.0,-999.0,98,18.62,,,-99.99,,2013-01-19 13:43:00,
2013-01-19 07:53:00,30.0,29.0,28.66,South,191,0.0,-999.0,98,18.62,,,-99.99,,2013-01-19 13:53:00,
2013-01-19 08:02:00,30.0,29.0,28.66,South,191,0.0,-999.0,98,18.62,,,-99.99,,2013-01-19 14:02:00,
2013-01-19 08:12:00,30.0,29.0,28.66,South,191,0.0,-999.0,98,18.62,,,-99.99,,2013-01-19 14:12:00,
2013-01-19 08:23:00,33.0,32.0,28.69,South,191,0.0,-999.0,98,18.62,,,-99.99,,2013-01-19 14:23:00,
2013-01-19 08:34:00,33.0,32.0,28.69,South,191,0.0,-999.0,98,18.62,,,-99.99,,2013-01-19 14:34:00,
2013-01-19 08:43:00,33.0,32.0,28.69,South,191,0.0,-999.0,98,18.62,,,-99.99,,2013-01-19 14:43:00,
2013-01-19 08:53:00,36.0,35.0,28.69,NW,305,9.0,-999.0,95,18.62,,,-99.99,,2013-01-19 14:53:00,
2013-01-19 09:03:00,36.0,35.0,28.69,NW,305,9.0,-999.0,95,18.62,,,-99.99,,2013-01-19 15:03:00,
2013-01-19 09:12:00,36.0,35.0,28.69,NW,305,9.0,-999.0,95,18.62,,,-99.99,,2013-01-19 15:12:00,
2013-01-19 09:23:00,38.0,36.0,28.72,West,280,8.0,-999.0,91,18.62,,,-99.99,,2013-01-19 15:23:00,
2013-01-19 09:34:00,38.0,36.0,28.72,West,280,8.0,-999.0,91,18.62,,,-99.99,,2013-01-19 15:34:00,
2013-01-19 09:43:00,38.0,36.0,28.72,West,280,8.0,-999.0,91,18.62,,,-99.99,,2013-01-19 15:43:00,
2013-01-19 09:53:00,40.0,37.0,28.74,West,278,7.0,-999.0,88,18.62,,,-99.99,,2013-01-19 15:53:00,
2013-01-19 10:03:00,40.0,37.0,28.74,West,278,7.0,-999.0,88,18.62,,,-99.99,,2013-01-19 16:03:00,
2013-01-19 10:13:00,40.0,37.0,28.74,West,278,7.0,-999.0,88,18.62,,,-99.99,,2013-01-19 16:13:00,
2013-01-19 10:23:00,44.0,39.0,28.75,NW,319,10.0,-999.0,81,18.62,,,-99.99,,2013-01-19 16:23:00,
2013-01-19 10:33:00,44.0,39.0,28.75,NW,319,10.0,-999.0,81,18.62,,,-99.99,,2013-01-19 16:33:00,
2013-01-19 10:43:00,44.0,39.0,28.75,NW,319,10.0,-999.0,81,18.62,,,-99.99,,2013-01-19 16:43:00,
2013-01-19 10:54:00,45.0,39.0,28.75,WNW,294,12.0,-999.0,78,18.62,,,-99.99,,2013-01-19 16:54:00,
2013-01-19 11:02:00,45.0,39.0,28.75,WNW,294,12.0,-999.0,78,18.62,,,-99.99,,2013-01-19 17:02:00,
2013-01-19 11:19:00,45.0,39.0,28.75,WNW,294,12.0,-999.0,78,18.62,,,-99.99,,2013-01-19 17:19:00,
2013-01-19 11:28:00,47.0,39.0,28.77,NW,304,10.0,-999.0,74,18.62,,,-99.99,,2013-01-19 17:28:00,
2013-01-19 11:37:00,47.0,39.0,28.77,NW,304,10.0,-999.0,74,18.62,,,-99.99,,2013-01-19 17:37:00,
2013-01-19 11:50:00,47.0,39.0,28.77,NW,304,10.0,-999.0,74,18.62,,,-99.99,,2013-01-19 17:50:00,
2013-01-19 12:08:00,49.0,40.0,28.77,NNW,328,11.0,-999.0,71,18.62,,,-99.99,,2013-01-19 18:08:00,
2013-01-19 12:14:00,49.0,40.0,28.77,NNW,328,11.0,-999.0,71,18.62,,,-99.99,,2013-01-19 18:14:00,
2013-01-19 12:25:00,49.0,41.0,28.76,NW,311,11.0,-999.0,73,18.62,,,-99.99,,2013-01-19 18:25:00,
2013-01-19 12:38:00,49.0,41.0,28.76,NW,311,11.0,-999.0,73,18.62,,,-99.99,,2013-01-19 18:38:00,
2013-01-19 12:47:00,49.0,41.0,28.76,NW,311,11.0,-999.0,73,18.62,,,-99.99,,2013-01-19 18:47:00,
2013-01-19 12:59:00,49.0,40.0,28.77,NW,326,12.0,-999.0,72,18.62,,,-99.99,,2013-01-19 18:59:00,
2013-01-19 13:06:00,49.0,40.0,28.77,NW,326,12.0,-999.0,72,18.62,,,-99.99,,2013-01-19 19:06:00,
2013-01-19 13:28:00,50.0,41.0,28.77,West,276,15.0,-999.0,72,18.62,,,-99.99,,2013-01-19 19:28:00,
2013-01-19 13:40:00,50.0,41.0,28.77,West,276,15.0,-999.0,72,18.62,,,-99.99,,2013-01-19 19:40:00,
2013-01-19 13:49:00,50.0,41.0,28.77,West,276,15.0,-999.0,72,18.62,,,-99.99,,2013-01-19 19:49:00,
2013-01-19 14:09:00,51.0,42.0,28.78,NW,312,15.0,-999.0,71,18.62,,,-99.99,,2013-01-19 20:09:00,
2013-01-19 14:19:00,51.0,42.0,28.78,NW,312,15.0,-999.0,71,18.62,,,-99.99,,2013-01-19 20:19:00,
2013-01-19 14:24:00,51.0,42.0,28.77,NW,305,11.0,-999.0,72,18.62,,,-99.99,,2013-01-19 20:24:00,
2013-01-19 14:39:00,51.0,42.0,28.77,NW,305,11.0,-999.0,72,18.62,,,-99.99,,2013-01-19 20:39:00,
2013-01-19 14:50:00,51.0,42.0,28.77,NW,305,11.0,-999.0,72,18.62,,,-99.99,,2013-01-19 20:50:00,
2013-01-19 15:05:00,51.0,42.0,28.78,WNW,300,11.0,-999.0,72,18.62,,,-99.99,,2013-01-19 21:05:00,
2013-01-19 15:14:00,51.0,42.0,28.78,WNW,300,11.0,-999.0,72,18.62,,,-99.99,,2013-01-19 21:14:00,
2013-01-19 15:25:00,51.0,42.0,28.80,NW,316,11.0,-999.0,71,18.62,,,-99.99,,2013-01-19 21:25:00,
2013-01-19 15:47:00,51.0,42.0,28.80,NW,316,11.0,-999.0,71,18.62,,,-99.99,,2013-01-19 21:47:00,
2013-01-19 15:53:00,51.0,42.0,28.80,NW,316,11.0,-999.0,71,18.62,,,-99.99,,2013-01-19 21:53:00,
2013-01-19 15:59:00,52.0,43.0,28.82,NW,319,11.0,-999.0,72,18.62,,,-99.99,,2013-01-19 21:59:00,
2013-01-19 16:18:00,52.0,43.0,28.82,NW,319,11.0,-999.0,72,18.62,,,-99.99,,2013-01-19 22:18:00,
2013-01-19 16:25:00,51.0,43.0,28.84,NW,318,9.0,-999.0,73,18.62,,,-99.99,,2013-01-19 22:25:00,
2013-01-19 16:36:00,51.0,43.0,28.84,NW,318,9.0,-999.0,73,18.62,,,-99.99,,2013-01-19 22:36:00,
2013-01-19 16:49:00,51.0,43.0,28.84,NW,318,9.0,-999.0,73,18.62,,,-99.99,,2013-01-19 22:49:00,
2013-01-19 16:58:00,50.0,42.0,28.85,NW,311,12.0,-999.0,74,18.62,,,-99.99,,2013-01-19 22:58:00,
2013-01-19 17:10:00,50.0,42.0,28.85,NW,311,12.0,-999.0,74,18.62,,,-99.99,,2013-01-19 23:10:00,
2013-01-19 17:25:00,47.0,41.0,28.87,NW,325,10.0,-999.0,80,18.62,,,-99.99,,2013-01-19 23:25:00,
2013-01-19 17:35:00,47.0,41.0,28.87,NW,325,10.0,-999.0,80,18.62,,,-99.99,,2013-01-19 23:35:00,
2013-01-19 17:50:00,47.0,41.0,28.87,NW,325,10.0,-999.0,80,18.62,,,-99.99,,2013-01-19 23:50:00,
2013-01-19 18:06:00,45.0,40.0,28.89,NNW,336,5.0,-999.0,83,18.62,,,-99.99,,2013-01-20 00:06:00,
2013-01-19 18:15:00,45.0,40.0,28.89,NNW,336,5.0,-999.0,83,18.62,,,-99.99,,2013-01-20 00:15:00,
2013-01-19 18:38:00,43.0,38.0,28.92,NW,314,14.0,-999.0,84,18.62,,,-99.99,,2013-01-20 00:38:00,
2013-01-19 18:48:00,43.0,38.0,28.92,NW,314,14.0,-999.0,84,18.62,,,-99.99,,2013-01-20 00:48:00,
2013-01-19 18:55:00,41.0,37.0,28.92,NNW,338,6.0,-999.0,87,18.62,,,-99.99,,2013-01-20 00:55:00,
2013-01-19 19:03:00,41.0,37.0,28.92,NNW,338,6.0,-999.0,87,18.62,,,-99.99,,2013-01-20 01:03:00,
2013-01-19 19:19:00,41.0,37.0,28.92,NNW,338,6.0,-999.0,87,18.62,,,-99.99,,2013-01-20 01:19:00,
2013-01-19 19:25:00,39.0,36.0,28.94,NNW,333,6.0,-999.0,88,18.62,,,-99.99,,2013-01-20 01:25:00,
2013-01-19 19:39:00,39.0,36.0,28.94,NNW,333,6.0,-999.0,88,18.62,,,-99.99,,2013-01-20 01:39:00,
2013-01-19 19:50:00,39.0,36.0,28.94,NNW,333,6.0,-999.0,88,18.62,,,-99.99,,2013-01-20 01:50:00,
2013-01-19 20:03:00,38.0,35.0,28.95,North,353,8.0,-999.0,90,18.62,,,-99.99,,2013-01-20 02:03:00,
2013-01-19 20:25:00,36.0,34.0,29.00,North,359,10.0,-999.0,93,18.62,,,-99.99,,2013-01-20 02:25:00,
2013-01-19 20:38:00,36.0,34.0,29.00,North,359,10.0,-999.0,93,18.62,,,-99.99,,2013-01-20 02:38:00,
2013-01-19 20:45:00,36.0,34.0,29.00,North,359,10.0,-999.0,93,18.62,,,-99.99,,2013-01-20 02:45:00,
2013-01-19 20:58:00,34.0,32.0,29.01,NW,314,16.0,-999.0,91,18.62,,,-99.99,,2013-01-20 02:58:00,
2013-01-19 21:07:00,34.0,32.0,29.01,NW,314,16.0,-999.0,91,18.62,,,-99.99,,2013-01-20 03:07:00,
2013-01-19 21:14:00,34.0,32.0,29.01,NW,314,16.0,-999.0,91,18.62,,,-99.99,,2013-01-20 03:14:00,
2013-01-19 21:24:00,32.0,30.0,29.02,NW,326,4.0,-999.0,91,18.62,,,-99.99,,2013-01-20 03:24:00,
2013-01-19 21:39:00,32.0,30.0,29.02,NW,326,4.0,-999.0,91,18.62,,,-99.99,,2013-01-20 03:39:00,
2013-01-19 21:47:00,32.0,30.0,29.02,NW,326,4.0,-999.0,91,18.62,,,-99.99,,2013-01-20 03:47:00,
2013-01-19 21:57:00,31.0,28.0,29.02,North,7,5.0,-999.0,90,18.62,,,-99.99,,2013-01-20 03:57:00,
2013-01-19 22:04:00,31.0,28.0,29.02,North,7,5.0,-999.0,90,18.62,,,-99.99,,2013-01-20 04:04:00,
2013-01-19 22:15:00,31.0,28.0,29.02,North,7,5.0,-999.0,90,18.62,,,-99.99,,2013-01-20 04:15:00,
2013-01-19 22:25:00,29.0,27.0,29.05,North,8,8.0,-999.0,91,18.62,,,-99.99,,2013-01-20 04:25:00,
2013-01-19 22:38:00,29.0,27.0,29.05,North,8,8.0,-999.0,91,18.62,,,-99.99,,2013-01-20 04:38:00,
2013-01-19 22:45:00,29.0,27.0,29.05,North,8,8.0,-999.0,91,18.62,,,-99.99,,2013-01-20 04:45:00,
2013-01-19 23:03:00,27.0,25.0,29.08,North,353,5.0,-999.0,91,18.62,,,-99.99,,2013-01-20 05:03:00,
2013-01-19 23:12:00,27.0,25.0,29.08,North,353,5.0,-999.0,91,18.62,,,-99.99,,2013-01-20 05:12:00,
2013-01-19 23:22:00,24.0,22.0,29.10,NNE,32,8.0,-999.0,92,18.62,,,-99.99,,2013-01-20 05:22:00,
2013-01-19 23:33:00,24.0,22.0,29.10,NNE,32,8.0,-999.0,92,18.62,,,-99.99,,2013-01-20 05:33:00,
2013-01-19 23:43:00,24.0,22.0,29.10,NNE,32,8.0,-999.0,92,18.62,,,-99.99,,2013-01-20 05:43:00,
2013-01-19 23:53:00,23.0,21.0,29.11,NNW,336,12.0,-999.0,91,18.62,,,-99.99,,2013-01-20 05:53:00,